Weather in Makhachkala

Russia / Republic of Dagestan     42°58′59″N   47°30′16″E
temp.,
°C
wind,
m/s
gust,
m/s
humid.,
%
clouds,
%
prec.,
mm/h
press.,
hPa
HPBL,
m
9 march, tue
tue900:00+2nw1495100 1.1 1018292
03:00+2nnw249599 1.6 1017322
06:00+1nne1192100 0.3 1018191
09:00+3nnw127587 0.3 1018422
12:00+5ene22630 0.0 1017666
15:00+5ese43650 0.0 1016494
18:00+4sse556910 0.0 1018259
21:00+4sse457438 0.0 1019162
10 march, wed
wed1000:00+4s227026 0.0 102031
03:00+2nnw578730 0.0 1021453
06:00+2w3589100 0.1 1023291
09:00+4nw347097 0.1 1023702
12:00+5n346598 0.1 1023726
15:00+5se237099 0.5 1022585
18:00+3e3380100 0.8 1023424
21:00+3e3478100 1.2 1023441
11 march, thu
thu1100:00+2e4682100 0.6 1022554
03:00+2ese5784100 1.6 1020657
06:00+1e7997100 1.9 1020474
09:00+1e81192100 5.3 1020760
12:000e91298100 3.7 1018726
15:000ene91195100 6.3 1017777
18:00−1ene81197100 2.6 1018695
21:00−1ene81195100 4.9 1019750
12 march, fri
fri1200:00−1ene91194100 2.4 1018802
03:00−2ene81096100 4.3 1018685
06:00−3ne81096100 2.9 1021693
09:00−2ene6892100 4.9 1024651
12:00−2ne7893100 0.9 1024657
15:00−3ne7893100 1.9 1025640
18:00−4ne5894100 1.5 1028548
21:00−4nne4594100 2.8 1029393
13 march, sat
sat1300:00−4n3493100 1.3 1030342
03:00−6wnw3494100 2.3 1030222
06:00−7w3495100 0.5 1032127
09:00−4wnw338795 0.6 1033305
12:00−3n228477 0.1 1032530
15:00−2e227278 0.1 1031686
18:00−4ese337449 0.0 1031308
21:00−5sse347947 0.0 1031315